| time (UTC) | temp F | wind direction | speed MPH | gust MPH | rain 1hr in | rain 24hr in | rain mn in | humidity % | barometer mb |
| 20260508080945 | 45 | 246 | 0.0 | 0.0 | 0.00 | 0.00 | 0.00 | 1 | 1009.1 |
| 20260508080439 | 46 | 246 | 0.0 | 0.0 | 0.00 | 0.00 | 0.00 | 1 | 1009.0 |
| 20260508075933 | 46 | 246 | 0.0 | 0.0 | 0.00 | 0.00 | 0.00 | 1 | 1008.9 |
| 20260508075427 | 46 | 246 | 0.0 | 0.0 | 0.00 | 0.00 | 0.00 | 1 | 1008.9 |
| 20260508074921 | 46 | 246 | 0.0 | 4.0 | 0.00 | 0.00 | 0.00 | 1 | 1008.9 |
| 20260508074642 | 47 | 246 | 0.0 | 4.0 | 0.00 | 0.00 | 0.00 | 1 | 1008.8 |
| 20260508073909 | 47 | 246 | 0.0 | 4.0 | 0.00 | 0.00 | 0.00 | 1 | 1008.6 |
| 20260508073625 | 47 | 252 | 0.0 | 4.0 | 0.00 | 0.00 | 0.00 | 1 | 1008.5 |
| 20260508072857 | 47 | 254 | 0.0 | 8.0 | 0.00 | 0.00 | 0.00 | 1 | 1008.8 |
| 20260508072351 | 47 | 258 | 0.0 | 8.0 | 0.00 | 0.00 | 0.00 | 1 | 1008.8 |
| 20260508071844 | 47 | 258 | 0.0 | 7.0 | 0.00 | 0.00 | 0.00 | 1 | 1008.9 |
| 20260508071340 | 47 | 250 | 0.0 | 0.0 | 0.00 | 0.00 | 0.00 | 1 | 1008.9 |
| 20260508070833 | 46 | 254 | 0.0 | 0.0 | 0.00 | 0.00 | 0.00 | 1 | 1008.9 |
| 20260508070327 | 46 | 253 | 0.0 | 0.0 | 0.00 | 0.00 | 0.00 | 1 | 1008.9 |
| 20260508065822 | 46 | 253 | 0.0 | 0.0 | 0.00 | 0.00 | 0.00 | 1 | 1008.8 |
| 20260508065315 | 47 | 253 | 0.0 | 0.0 | 0.00 | 0.00 | 0.00 | 1 | 1008.8 |
| 20260508064809 | 47 | 253 | 0.0 | 0.0 | 0.00 | 0.00 | 0.00 | 1 | 1008.8 |
| 20260508064303 | 47 | 253 | 0.0 | 0.0 | 0.00 | 0.00 | 0.00 | 1 | 1008.9 |
| 20260508063757 | 47 | 253 | 0.0 | 0.0 | 0.00 | 0.00 | 0.00 | 1 | 1008.9 |
| 20260508063251 | 47 | 253 | 0.0 | 0.0 | 0.00 | 0.00 | 0.00 | 1 | 1008.8 |
| 20260508062745 | 48 | 253 | 0.0 | 0.0 | 0.00 | 0.00 | 0.00 | 1 | 1008.6 |
| 20260508062239 | 48 | 253 | 0.0 | 1.0 | 0.00 | 0.00 | 0.00 | 5 | 1008.6 |
| 20260508061954 | 48 | 254 | 0.0 | 1.0 | 0.00 | 0.00 | 0.00 | 10 | 1008.8 |
| 20260508061453 | 48 | 250 | 0.0 | 4.0 | 0.00 | 0.00 | 0.00 | 2 | 1008.9 |
| 20260508060721 | 49 | 245 | 1.0 | 10.0 | 0.00 | 0.00 | 0.00 | 18 | 1009.0 |
| 20260508060215 | 49 | 253 | 1.0 | 10.0 | 0.00 | 0.00 | 0.00 | 26 | 1009.1 |
| 20260508055709 | 49 | 236 | 1.0 | 10.0 | 0.00 | 0.00 | 0.00 | 27 | 1009.1 |
| 20260508055202 | 48 | 264 | 2.0 | 15.0 | 0.00 | 0.00 | 0.00 | 28 | 1009.3 |
| 20260508054702 | 48 | 275 | 2.0 | 15.0 | 0.00 | 0.00 | 0.00 | 24 | 1009.1 |
| 20260508054204 | 47 | 289 | 0.0 | 6.0 | 0.00 | 0.00 | 0.00 | 11 | 1009.1 |
| 20260508053704 | 48 | 278 | 0.0 | 0.0 | 0.00 | 0.00 | 0.00 | 1 | 1008.8 |
| 20260508053202 | 47 | 355 | 0.0 | 0.0 | 0.00 | 0.00 | 0.00 | 5 | 1008.5 |
| 20260508052659 | 47 | 16 | 0.0 | 0.0 | 0.00 | 0.00 | 0.00 | 4 | 1008.6 |
| 20260508052157 | 47 | 16 | 0.0 | 0.0 | 0.00 | 0.00 | 0.00 | 1 | 1008.6 |
| 20260508051655 | 48 | 16 | 0.0 | 1.0 | 0.00 | 0.00 | 0.00 | 1 | 1008.4 |
| 20260508051156 | 48 | 16 | 0.0 | 1.0 | 0.00 | 0.00 | 0.00 | 2 | 1008.2 |
| 20260508050655 | 48 | 16 | 0.0 | 0.0 | 0.00 | 0.00 | 0.00 | 5 | 1007.9 |
| 20260508050153 | 48 | 16 | 0.0 | 4.0 | 0.00 | 0.00 | 0.00 | 4 | 1007.6 |
| 20260508045651 | 47 | 16 | 0.0 | 4.0 | 0.00 | 0.00 | 0.00 | 2 | 1007.4 |
| 20260508045151 | 47 | 16 | 0.0 | 1.0 | 0.00 | 0.00 | 0.00 | 1 | 1007.6 |
| 20260508044651 | 47 | 16 | 0.0 | 0.0 | 0.00 | 0.00 | 0.00 | 1 | 1007.6 |
| 20260508044409 | 47 | 16 | 0.0 | 0.0 | 0.00 | 0.00 | 0.00 | 1 | 1007.7 |
| 20260508043647 | 48 | 16 | 0.0 | 0.0 | 0.00 | 0.00 | 0.00 | 1 | 1007.8 |
| 20260508043145 | 48 | 16 | 0.0 | 0.0 | 0.00 | 0.00 | 0.00 | 1 | 1007.8 |
| 20260508042643 | 48 | 16 | 0.0 | 1.0 | 0.00 | 0.00 | 0.00 | 1 | 1007.8 |
| 20260508042143 | 48 | 16 | 0.0 | 1.0 | 0.00 | 0.00 | 0.00 | 1 | 1007.8 |
| 20260508041641 | 47 | 16 | 0.0 | 1.0 | 0.00 | 0.00 | 0.00 | 1 | 1007.8 |
| 20260508041141 | 47 | 16 | 0.0 | 0.0 | 0.00 | 0.00 | 0.00 | 1 | 1007.7 |
| 20260508040905 | 47 | 16 | 0.0 | 0.0 | 0.00 | 0.00 | 0.00 | 1 | 1007.7 |
| 20260508040140 | 46 | 16 | 0.0 | 0.0 | 0.00 | 0.00 | 0.00 | 1 | 1007.7 |
| 20260508035636 | 46 | 16 | 0.0 | 0.0 | 0.00 | 0.00 | 0.00 | 1 | 1007.6 |
| 20260508035136 | 46 | 16 | 0.0 | 0.0 | 0.00 | 0.00 | 0.00 | 1 | 1007.6 |
| 20260508035117 | 46 | 16 | 0.0 | 0.0 | 0.00 | 0.00 | 0.00 | 1 | 1007.6 |
| 20260508034137 | 46 | 16 | 0.0 | 1.0 | 0.00 | 0.00 | 0.00 | 1 | 1007.6 |
| 20260508033637 | 45 | 16 | 0.0 | 1.0 | 0.00 | 0.00 | 0.00 | 1 | 1007.6 |
| 20260508033624 | 45 | 16 | 0.0 | 0.0 | 0.00 | 0.00 | 0.00 | 1 | 1007.7 |
| 20260508032637 | 45 | 16 | 0.0 | 0.0 | 0.00 | 0.00 | 0.00 | 1 | 1007.7 |
| 20260508032137 | 45 | 16 | 0.0 | 0.0 | 0.00 | 0.00 | 0.00 | 1 | 1007.7 |
| 20260508031637 | 45 | 16 | 0.0 | 0.0 | 0.00 | 0.00 | 0.00 | 1 | 1007.8 |
| 20260508031137 | 45 | 16 | 0.0 | 0.0 | 0.00 | 0.00 | 0.00 | 1 | 1007.8 |
| 20260508030637 | 45 | 16 | 0.0 | 0.0 | 0.00 | 0.00 | 0.00 | 1 | 1007.8 |
| 20260508030404 | 45 | 16 | 0.0 | 0.0 | 0.00 | 0.00 | 0.00 | 1 | 1007.9 |
| 20260508025637 | 45 | 16 | 0.0 | 0.0 | 0.00 | 0.00 | 0.00 | 1 | 1008.0 |
| 20260508025137 | 45 | 16 | 0.0 | 0.0 | 0.00 | 0.00 | 0.00 | 1 | 1007.8 |
| 20260508024637 | 45 | 16 | 0.0 | 0.0 | 0.00 | 0.00 | 0.00 | 1 | 1007.9 |
| 20260508024401 | 45 | 16 | 0.0 | 0.0 | 0.00 | 0.00 | 0.00 | 1 | 1007.9 |
| 20260508023901 | 45 | 16 | 0.0 | 0.0 | 0.00 | 0.00 | 0.00 | 1 | 1007.9 |
| 20260508023135 | 45 | 16 | 0.0 | 0.0 | 0.00 | 0.00 | 0.00 | 1 | 1007.8 |
| 20260508022632 | 45 | 16 | 0.0 | 0.0 | 0.00 | 0.00 | 0.00 | 1 | 1007.9 |
| 20260508022133 | 45 | 16 | 0.0 | 0.0 | 0.00 | 0.00 | 0.00 | 1 | 1007.8 |
| 20260508021633 | 46 | 16 | 0.0 | 0.0 | 0.00 | 0.00 | 0.00 | 1 | 1007.9 |
| 20260508021133 | 46 | 16 | 0.0 | 0.0 | 0.00 | 0.00 | 0.00 | 1 | 1008.1 |
| 20260508020633 | 46 | 16 | 0.0 | 0.0 | 0.00 | 0.00 | 0.00 | 1 | 1007.9 |
| 20260508020129 | 46 | 16 | 0.0 | 0.0 | 0.00 | 0.00 | 0.00 | 1 | 1007.9 |
| 20260508015628 | 46 | 16 | 0.0 | 0.0 | 0.00 | 0.00 | 0.00 | 1 | 1007.8 |
| 20260508015129 | 46 | 16 | 0.0 | 0.0 | 0.00 | 0.00 | 0.00 | 1 | 1007.7 |
| 20260508014629 | 46 | 16 | 0.0 | 0.0 | 0.00 | 0.00 | 0.00 | 1 | 1007.7 |
| 20260508014129 | 46 | 16 | 0.0 | 0.0 | 0.00 | 0.00 | 0.00 | 1 | 1007.6 |
| 20260508013629 | 46 | 16 | 0.0 | 0.0 | 0.00 | 0.00 | 0.00 | 1 | 1007.6 |
| 20260508013356 | 47 | 16 | 0.0 | 0.0 | 0.00 | 0.00 | 0.00 | 1 | 1007.7 |
| 20260508012820 | 47 | 16 | 0.0 | 0.0 | 0.00 | 0.00 | 0.00 | 1 | 1007.4 |
| 20260508012707 | 47 | 16 | 0.0 | 0.0 | 0.00 | 0.00 | 0.00 | 3 | 1007.6 |
| 20260508012223 | 47 | 16 | 0.0 | 0.0 | 0.00 | 0.00 | 0.00 | 1 | 1007.6 |
| 20260508011345 | 48 | 16 | 0.0 | 0.0 | 0.00 | 0.00 | 0.00 | 6 | 1007.4 |
| 20260508010625 | 48 | 16 | 0.0 | 0.0 | 0.00 | 0.00 | 0.00 | 17 | 1007.3 |
| 20260508010125 | 48 | 17 | 0.0 | 0.0 | 0.00 | 0.00 | 0.00 | 27 | 1007.1 |
| 20260508005625 | 48 | 17 | 0.0 | 0.0 | 0.00 | 0.00 | 0.00 | 36 | 1007.1 |
| 20260508005345 | 49 | 16 | 0.0 | 0.0 | 0.00 | 0.00 | 0.00 | 22 | 1007.1 |
| 20260508004625 | 49 | 16 | 0.0 | 0.0 | 0.00 | 0.00 | 0.00 | 26 | 1007.0 |
| 20260508004124 | 50 | 16 | 0.0 | 0.0 | 0.00 | 0.00 | 0.00 | 31 | 1006.9 |
| 20260508003624 | 50 | 16 | 0.0 | 0.0 | 0.00 | 0.00 | 0.00 | 38 | 1006.7 |
| 20260508003355 | 51 | 16 | 0.0 | 0.0 | 0.00 | 0.00 | 0.00 | 43 | 1006.7 |
| 20260508002624 | 51 | 16 | 0.0 | 0.0 | 0.00 | 0.00 | 0.00 | 44 | 1006.6 |
| 20260508002122 | 52 | 16 | 0.0 | 0.0 | 0.00 | 0.00 | 0.00 | 45 | 1006.5 |
| 20260508002103 | 53 | 16 | 0.0 | 0.0 | 0.00 | 0.00 | 0.00 | 47 | 1006.5 |
| 20260508001122 | 53 | 16 | 0.0 | 0.0 | 0.00 | 0.00 | 0.00 | 50 | 1006.4 |
| 20260508000843 | 54 | 20 | 0.0 | 0.0 | 0.00 | 0.00 | 0.00 | 50 | 1006.3 |
| 20260508000335 | 55 | 17 | 0.0 | 0.0 | 0.00 | 0.00 | 0.00 | 50 | 1006.2 |
| 20260507235616 | 56 | 16 | 0.0 | 0.0 | 0.00 | 0.00 | 0.00 | 51 | 1006.1 |
| 20260507235116 | 57 | 16 | 0.0 | 1.0 | 0.00 | 0.00 | 0.00 | 48 | 1006.2 |
| 20260507234837 | 57 | 16 | 0.0 | 1.0 | 0.00 | 0.00 | 0.00 | 42 | 1006.2 |
| 20260507234112 | 57 | 16 | 0.0 | 4.0 | 0.00 | 0.00 | 0.00 | 40 | 1006.2 |
| 20260507233612 | 58 | 12 | 0.0 | 4.0 | 0.00 | 0.00 | 0.00 | 39 | 1006.2 |
| 20260507233112 | 58 | 12 | 0.0 | 1.0 | 0.00 | 0.00 | 0.00 | 39 | 1006.1 |
| 20260507232612 | 59 | 12 | 0.0 | 0.0 | 0.00 | 0.00 | 0.00 | 39 | 1005.9 |
| 20260507232107 | 59 | 11 | 0.0 | 0.0 | 0.00 | 0.00 | 0.00 | 37 | 1005.9 |
| 20260507231606 | 59 | 11 | 0.0 | 1.0 | 0.00 | 0.00 | 0.00 | 38 | 1005.9 |
| 20260507231100 | 59 | 11 | 0.0 | 1.0 | 0.00 | 0.00 | 0.00 | 39 | 1006.0 |
| 20260507230554 | 58 | 14 | 0.0 | 0.0 | 0.00 | 0.00 | 0.00 | 39 | 1006.0 |
| 20260507230047 | 58 | 14 | 0.0 | 1.0 | 0.00 | 0.00 | 0.00 | 37 | 1005.9 |
| 20260507225806 | 58 | 13 | 0.0 | 1.0 | 0.00 | 0.00 | 0.00 | 36 | 1005.9 |
| 20260507225041 | 59 | 59 | 0.0 | 1.0 | 0.00 | 0.00 | 0.00 | 36 | 1005.8 |
| 20260507224541 | 59 | 34 | 0.0 | 1.0 | 0.00 | 0.00 | 0.00 | 36 | 1005.7 |
| 20260507224302 | 60 | 349 | 0.0 | 6.0 | 0.00 | 0.00 | 0.00 | 35 | 1005.7 |
| 20260507223539 | 60 | 295 | 0.0 | 6.0 | 0.00 | 0.00 | 0.00 | 37 | 1005.8 |
| 20260507223038 | 61 | 296 | 0.0 | 5.0 | 0.00 | 0.00 | 0.00 | 35 | 1005.8 |
| 20260507222538 | 61 | 306 | 0.0 | 5.0 | 0.00 | 0.00 | 0.00 | 36 | 1005.8 |
| 20260507222038 | 61 | 308 | 0.0 | 2.0 | 0.00 | 0.00 | 0.00 | 34 | 1005.8 |
| 20260507221540 | 61 | 17 | 0.0 | 4.0 | 0.00 | 0.00 | 0.00 | 36 | 1005.9 |
| 20260507221037 | 60 | 9 | 0.0 | 4.0 | 0.00 | 0.00 | 0.00 | 36 | 1005.8 |
| 20260507220535 | 60 | 307 | 0.0 | 8.0 | 0.00 | 0.00 | 0.00 | 34 | 1005.9 |
| 20260507220035 | 60 | 306 | 0.0 | 8.0 | 0.00 | 0.00 | 0.00 | 35 | 1006.0 |
| 20260507215535 | 60 | 324 | 0.0 | 6.0 | 0.00 | 0.00 | 0.00 | 34 | 1005.9 |
| 20260507215034 | 61 | 5 | 0.0 | 10.0 | 0.00 | 0.00 | 0.00 | 35 | 1006.0 |
| 20260507214534 | 62 | 261 | 1.0 | 11.0 | 0.00 | 0.00 | 0.00 | 34 | 1005.9 |
| 20260507214034 | 62 | 132 | 1.0 | 11.0 | 0.00 | 0.00 | 0.00 | 36 | 1005.7 |
| 20260507213755 | 62 | 24 | 1.0 | 11.0 | 0.00 | 0.00 | 0.00 | 35 | 1005.7 |
| 20260507213034 | 62 | 277 | 1.0 | 11.0 | 0.00 | 0.00 | 0.00 | 35 | 1005.6 |
| 20260507212528 | 62 | 267 | 0.0 | 9.0 | 0.00 | 0.00 | 0.00 | 32 | 1005.5 |
| 20260507212022 | 62 | 36 | 0.0 | 9.0 | 0.00 | 0.00 | 0.00 | 38 | 1005.5 |
| 20260507211516 | 62 | 41 | 0.0 | 9.0 | 0.00 | 0.00 | 0.00 | 38 | 1005.6 |
| 20260507211448 | 61 | 280 | 0.0 | 7.0 | 0.00 | 0.00 | 0.00 | 38 | 1005.5 |
| 20260507210503 | 61 | 55 | 1.0 | 10.0 | 0.00 | 0.00 | 0.00 | 37 | 1005.5 |
| 20260507205958 | 61 | 85 | 1.0 | 10.0 | 0.00 | 0.00 | 0.00 | 38 | 1005.4 |
| 20260507205452 | 62 | 67 | 0.0 | 8.0 | 0.00 | 0.00 | 0.00 | 37 | 1005.4 |
| 20260507204946 | 62 | 49 | 0.0 | 4.0 | 0.00 | 0.00 | 0.00 | 38 | 1005.4 |
| 20260507204440 | 62 | 304 | 0.0 | 5.0 | 0.00 | 0.00 | 0.00 | 33 | 1005.3 |
| 20260507203934 | 62 | 327 | 0.0 | 7.0 | 0.00 | 0.00 | 0.00 | 35 | 1005.3 |
| 20260507203428 | 62 | 246 | 1.0 | 10.0 | 0.00 | 0.00 | 0.00 | 37 | 1005.4 |
| 20260507202921 | 62 | 38 | 1.0 | 12.0 | 0.00 | 0.00 | 0.00 | 37 | 1005.3 |
| 20260507202416 | 62 | 274 | 1.0 | 8.0 | 0.00 | 0.00 | 0.00 | 38 | 1005.4 |
| 20260507201910 | 62 | 134 | 0.0 | 6.0 | 0.00 | 0.00 | 0.00 | 39 | 1005.3 |
| 20260507201403 | 61 | 56 | 0.0 | 5.0 | 0.00 | 0.00 | 0.00 | 39 | 1005.3 |
| 20260507200859 | 62 | 51 | 0.0 | 9.0 | 0.00 | 0.00 | 0.00 | 36 | 1005.4 |
| 20260507200352 | 62 | 53 | 1.0 | 9.0 | 0.00 | 0.00 | 0.00 | 39 | 1005.4 |
| 20260507195846 | 62 | 59 | 0.0 | 7.0 | 0.00 | 0.00 | 0.00 | 37 | 1005.4 |
| 20260507195341 | 62 | 261 | 0.0 | 7.0 | 0.00 | 0.00 | 0.00 | 36 | 1005.5 |
| 20260507195058 | 63 | 265 | 0.0 | 7.0 | 0.00 | 0.00 | 0.00 | 36 | 1005.6 |
| 20260507194328 | 62 | 28 | 0.0 | 5.0 | 0.00 | 0.00 | 0.00 | 36 | 1005.7 |
| 20260507193822 | 61 | 333 | 1.0 | 6.0 | 0.00 | 0.00 | 0.00 | 37 | 1005.8 |
| 20260507193757 | 62 | 281 | 1.0 | 12.0 | 0.00 | 0.00 | 0.00 | 37 | 1005.7 |
| 20260507192810 | 62 | 47 | 0.0 | 12.0 | 0.00 | 0.00 | 0.00 | 41 | 1005.9 |
| 20260507192306 | 61 | 55 | 0.0 | 9.0 | 0.00 | 0.00 | 0.00 | 38 | 1005.9 |
| 20260507191758 | 60 | 53 | 1.0 | 10.0 | 0.00 | 0.00 | 0.00 | 41 | 1005.9 |
| 20260507191252 | 60 | 76 | 0.0 | 10.0 | 0.00 | 0.00 | 0.00 | 37 | 1006.0 |
| 20260507190746 | 60 | 290 | 0.0 | 5.0 | 0.00 | 0.00 | 0.00 | 36 | 1006.1 |
| 20260507190240 | 61 | 50 | 1.0 | 9.0 | 0.00 | 0.00 | 0.00 | 38 | 1006.2 |
| 20260507185734 | 61 | 302 | 1.0 | 9.0 | 0.00 | 0.00 | 0.00 | 39 | 1006.2 |
| 20260507185228 | 60 | 40 | 0.0 | 4.0 | 0.00 | 0.00 | 0.00 | 41 | 1006.1 |
| 20260507184722 | 58 | 47 | 0.0 | 0.0 | 0.00 | 0.00 | 0.00 | 41 | 1006.2 |
| 20260507184216 | 58 | 46 | 0.0 | 0.0 | 0.00 | 0.00 | 0.00 | 42 | 1006.3 |
| 20260507183710 | 58 | 62 | 0.0 | 0.0 | 0.00 | 0.00 | 0.00 | 44 | 1006.3 |
| 20260507183204 | 59 | 63 | 0.0 | 8.0 | 0.00 | 0.00 | 0.00 | 43 | 1006.3 |
| 20260507182658 | 59 | 50 | 0.0 | 8.0 | 0.00 | 0.00 | 0.00 | 43 | 1006.4 |
| 20260507182411 | 59 | 57 | 0.0 | 4.0 | 0.00 | 0.00 | 0.00 | 44 | 1006.4 |
| 20260507181646 | 59 | 59 | 0.0 | 4.0 | 0.00 | 0.00 | 0.00 | 42 | 1006.5 |
| 20260507181140 | 59 | 40 | 0.0 | 7.0 | 0.00 | 0.00 | 0.00 | 42 | 1006.6 |
| 20260507181127 | 59 | 46 | 1.0 | 12.0 | 0.00 | 0.00 | 0.00 | 40 | 1006.6 |
| 20260507180128 | 60 | 30 | 1.0 | 12.0 | 0.00 | 0.00 | 0.00 | 41 | 1006.5 |
| 20260507175622 | 60 | 46 | 1.0 | 9.0 | 0.00 | 0.00 | 0.00 | 40 | 1006.6 |
| 20260507175116 | 61 | 41 | 0.0 | 7.0 | 0.00 | 0.00 | 0.00 | 43 | 1006.7 |
| 20260507174835 | 60 | 56 | 0.0 | 5.0 | 0.00 | 0.00 | 0.00 | 40 | 1006.7 |
| 20260507174103 | 60 | 55 | 0.0 | 7.0 | 0.00 | 0.00 | 0.00 | 40 | 1006.7 |
| 20260507173558 | 60 | 53 | 1.0 | 7.0 | 0.00 | 0.00 | 0.00 | 39 | 1006.8 |
| 20260507173052 | 60 | 285 | 1.0 | 11.0 | 0.00 | 0.00 | 0.00 | 39 | 1006.9 |
| 20260507172545 | 60 | 302 | 1.0 | 11.0 | 0.00 | 0.00 | 0.00 | 38 | 1006.8 |
| 20260507172308 | 60 | 161 | 1.0 | 11.0 | 0.00 | 0.00 | 0.00 | 44 | 1006.9 |
| 20260507171756 | 61 | 312 | 1.0 | 11.0 | 0.00 | 0.00 | 0.00 | 37 | 1007.1 |
| 20260507171028 | 60 | 355 | 1.0 | 11.0 | 0.00 | 0.00 | 0.00 | 44 | 1006.9 |
| 20260507170522 | 60 | 300 | 0.0 | 11.0 | 0.00 | 0.00 | 0.00 | 39 | 1007.0 |
| 20260507170016 | 60 | 35 | 0.0 | 2.0 | 0.00 | 0.00 | 0.00 | 45 | 1007.1 |
| 20260507165510 | 59 | 42 | 0.0 | 2.0 | 0.00 | 0.00 | 0.00 | 38 | 1006.9 |
| 20260507165004 | 59 | 284 | 0.0 | 2.0 | 0.00 | 0.00 | 0.00 | 39 | 1007.1 |
| 20260507164458 | 59 | 322 | 0.0 | 7.0 | 0.00 | 0.00 | 0.00 | 39 | 1007.2 |
| 20260507163952 | 59 | 80 | 1.0 | 7.0 | 0.00 | 0.00 | 0.00 | 42 | 1007.3 |
| 20260507163446 | 59 | 57 | 1.0 | 10.0 | 0.00 | 0.00 | 0.00 | 45 | 1007.3 |
| 20260507162940 | 58 | 88 | 0.0 | 10.0 | 0.00 | 0.00 | 0.00 | 46 | 1007.3 |
| 20260507162438 | 58 | 63 | 0.0 | 6.0 | 0.00 | 0.00 | 0.00 | 42 | 1007.6 |
| 20260507161936 | 58 | 331 | 1.0 | 16.0 | 0.00 | 0.00 | 0.00 | 41 | 1007.7 |
| 20260507161436 | 58 | 11 | 1.0 | 16.0 | 0.00 | 0.00 | 0.00 | 46 | 1007.7 |
| 20260507161202 | 58 | 50 | 0.0 | 7.0 | 0.00 | 0.00 | 0.00 | 39 | 1007.7 |
| 20260507160437 | 58 | 67 | 0.0 | 5.0 | 0.00 | 0.00 | 0.00 | 43 | 1008.0 |
| 20260507155936 | 57 | 24 | 0.0 | 4.0 | 0.00 | 0.00 | 0.00 | 47 | 1008.2 |
| 20260507155652 | 57 | 214 | 1.0 | 10.0 | 0.00 | 0.00 | 0.00 | 42 | 1008.2 |
| 20260507154935 | 56 | 102 | 1.0 | 10.0 | 0.00 | 0.00 | 0.00 | 45 | 1008.4 |
| 20260507154433 | 56 | 331 | 0.0 | 9.0 | 0.00 | 0.00 | 0.00 | 42 | 1008.6 |
| 20260507153934 | 56 | 279 | 1.0 | 10.0 | 0.00 | 0.00 | 0.00 | 43 | 1008.5 |
| 20260507153434 | 56 | 279 | 1.0 | 10.0 | 0.00 | 0.00 | 0.00 | 42 | 1008.6 |
| 20260507152934 | 56 | 241 | 0.0 | 9.0 | 0.00 | 0.00 | 0.00 | 42 | 1008.6 |
| 20260507152434 | 56 | 311 | 0.0 | 4.0 | 0.00 | 0.00 | 0.00 | 44 | 1008.7 |
| 20260507152156 | 56 | 27 | 0.0 | 8.0 | 0.00 | 0.00 | 0.00 | 45 | 1008.8 |
| 20260507151654 | 56 | 317 | 1.0 | 8.0 | 0.00 | 0.00 | 0.00 | 43 | 1008.8 |
| 20260507151158 | 56 | 222 | 0.0 | 9.0 | 0.00 | 0.00 | 0.00 | 43 | 1008.8 |
| 20260507150659 | 56 | 44 | 1.0 | 9.0 | 0.00 | 0.00 | 0.00 | 44 | 1008.9 |
| 20260507145928 | 55 | 63 | 0.0 | 6.0 | 0.00 | 0.00 | 0.00 | 46 | 1009.0 |
| 20260507145426 | 55 | 67 | 0.0 | 0.0 | 0.00 | 0.00 | 0.00 | 42 | 1009.0 |
| 20260507144924 | 55 | 67 | 0.0 | 0.0 | 0.00 | 0.00 | 0.00 | 44 | 1009.0 |
| 20260507144424 | 55 | 74 | 0.0 | 7.0 | 0.00 | 0.00 | 0.00 | 46 | 1008.9 |
| 20260507143922 | 55 | 69 | 0.0 | 7.0 | 0.00 | 0.00 | 0.00 | 46 | 1009.1 |
| 20260507143421 | 55 | 64 | 0.0 | 6.0 | 0.00 | 0.00 | 0.00 | 45 | 1009.0 |
| 20260507142922 | 55 | 26 | 0.0 | 2.0 | 0.00 | 0.00 | 0.00 | 46 | 1009.1 |
| 20260507142422 | 55 | 47 | 0.0 | 4.0 | 0.00 | 0.00 | 0.00 | 47 | 1009.1 |
| 20260507141922 | 54 | 54 | 0.0 | 4.0 | 0.00 | 0.00 | 0.00 | 44 | 1009.1 |
| 20260507141421 | 54 | 42 | 0.0 | 6.0 | 0.00 | 0.00 | 0.00 | 44 | 1009.2 |
| 20260507140922 | 54 | 306 | 0.0 | 6.0 | 0.00 | 0.00 | 0.00 | 47 | 1009.3 |
| 20260507140423 | 54 | 106 | 0.0 | 7.0 | 0.00 | 0.00 | 0.00 | 46 | 1009.3 |
| 20260507135920 | 53 | 42 | 1.0 | 12.0 | 0.00 | 0.00 | 0.00 | 46 | 1009.4 |
| 20260507135418 | 53 | 69 | 1.0 | 12.0 | 0.00 | 0.00 | 0.00 | 46 | 1009.3 |
| 20260507134918 | 53 | 64 | 1.0 | 11.0 | 0.00 | 0.00 | 0.00 | 46 | 1009.4 |
| 20260507134418 | 53 | 66 | 2.0 | 11.0 | 0.00 | 0.00 | 0.00 | 46 | 1009.5 |
| 20260507134141 | 53 | 79 | 1.0 | 11.0 | 0.00 | 0.00 | 0.00 | 45 | 1009.5 |
| 20260507133410 | 53 | 333 | 1.0 | 9.0 | 0.00 | 0.00 | 0.00 | 46 | 1009.6 |
| 20260507132908 | 52 | 75 | 1.0 | 9.0 | 0.00 | 0.00 | 0.00 | 47 | 1009.5 |
| 20260507132408 | 52 | 26 | 1.0 | 11.0 | 0.00 | 0.00 | 0.00 | 47 | 1009.5 |
| 20260507131906 | 52 | 61 | 1.0 | 11.0 | 0.00 | 0.00 | 0.00 | 45 | 1009.5 |
| 20260507131406 | 52 | 342 | 1.0 | 9.0 | 0.00 | 0.00 | 0.00 | 45 | 1009.5 |
| 20260507130905 | 52 | 12 | 1.0 | 10.0 | 0.00 | 0.00 | 0.00 | 45 | 1009.4 |
| 20260507130407 | 51 | 50 | 1.0 | 10.0 | 0.00 | 0.00 | 0.00 | 45 | 1009.5 |
| 20260507125906 | 51 | 49 | 0.0 | 8.0 | 0.00 | 0.00 | 0.00 | 45 | 1009.4 |
| 20260507125406 | 51 | 218 | 1.0 | 10.0 | 0.00 | 0.00 | 0.00 | 44 | 1009.4 |
| 20260507124906 | 51 | 351 | 1.0 | 10.0 | 0.00 | 0.00 | 0.00 | 45 | 1009.2 |
| 20260507124402 | 50 | 0 | 0.0 | 0.0 | 0.00 | 0.00 | 0.00 | 44 | 1009.2 |
| 20260507123902 | 50 | 17 | 0.0 | 1.0 | 0.00 | 0.00 | 0.00 | 42 | 1009.1 |
| 20260507123401 | 50 | 44 | 0.0 | 1.0 | 0.00 | 0.00 | 0.00 | 42 | 1009.2 |
| 20260507122902 | 50 | 302 | 0.0 | 0.0 | 0.00 | 0.00 | 0.00 | 40 | 1009.2 |
| 20260507122617 | 50 | 55 | 0.0 | 1.0 | 0.00 | 0.00 | 0.00 | 39 | 1009.3 |
| 20260507121902 | 50 | 61 | 0.0 | 1.0 | 0.00 | 0.00 | 0.00 | 41 | 1009.3 |
| 20260507121625 | 49 | 0 | 1.0 | 6.0 | 0.00 | 0.00 | 0.00 | 39 | 1009.2 |
| 20260507120902 | 49 | 53 | 1.0 | 11.0 | 0.00 | 0.00 | 0.00 | 40 | 1009.3 |
| 20260507120403 | 49 | 59 | 2.0 | 13.0 | 0.00 | 0.00 | 0.00 | 38 | 1009.3 |
| 20260507115857 | 49 | 11 | 2.0 | 13.0 | 0.00 | 0.00 | 0.00 | 38 | 1009.3 |
| 20260507115620 | 49 | 65 | 3.0 | 12.0 | 0.00 | 0.00 | 0.00 | 35 | 1009.1 |
| 20260507114858 | 49 | 48 | 2.0 | 10.0 | 0.00 | 0.00 | 0.00 | 33 | 1009.1 |
| 20260507114358 | 49 | 59 | 1.0 | 10.0 | 0.00 | 0.00 | 0.00 | 29 | 1009.2 |
| 20260507113857 | 49 | 44 | 2.0 | 18.0 | 0.00 | 0.00 | 0.00 | 28 | 1009.2 |
| 20260507113621 | 49 | 45 | 3.0 | 18.0 | 0.00 | 0.00 | 0.00 | 28 | 1009.1 |
| 20260507112858 | 49 | 11 | 4.0 | 8.0 | 0.00 | 0.00 | 0.00 | 13 | 1008.9 |
| 20260507112358 | 49 | 0 | 4.0 | 8.0 | 0.00 | 0.00 | 0.00 | 1 | 1008.8 |
| 20260507111858 | 49 | 348 | 4.0 | 10.0 | 0.00 | 0.00 | 0.00 | 1 | 1008.8 |
| 20260507111353 | 48 | 306 | 5.0 | 14.0 | 0.00 | 0.00 | 0.00 | 1 | 1008.9 |
| 20260507110853 | 48 | 300 | 4.0 | 14.0 | 0.00 | 0.00 | 0.00 | 1 | 1008.9 |
| 20260507110355 | 49 | 0 | 3.0 | 8.0 | 0.00 | 0.00 | 0.00 | 1 | 1008.8 |
| 20260507105853 | 48 | 279 | 2.0 | 8.0 | 0.00 | 0.00 | 0.00 | 1 | 1008.8 |
| 20260507105832 | 47 | 17 | 1.0 | 8.0 | 0.00 | 0.00 | 0.00 | 1 | 1008.6 |
| 20260507104852 | 47 | 11 | 1.0 | 8.0 | 0.00 | 0.00 | 0.00 | 1 | 1008.5 |
| 20260507104351 | 47 | 69 | 0.0 | 0.0 | 0.00 | 0.00 | 0.00 | 1 | 1008.4 |
| 20260507103849 | 47 | 69 | 0.0 | 0.0 | 0.00 | 0.00 | 0.00 | 1 | 1008.3 |
| 20260507103349 | 47 | 69 | 0.0 | 0.0 | 0.00 | 0.00 | 0.00 | 1 | 1008.3 |
| 20260507102851 | 47 | 69 | 0.0 | 0.0 | 0.00 | 0.00 | 0.00 | 1 | 1008.1 |
| 20260507102348 | 47 | 69 | 0.0 | 0.0 | 0.00 | 0.00 | 0.00 | 1 | 1008.1 |
| 20260507101846 | 47 | 69 | 0.0 | 0.0 | 0.00 | 0.00 | 0.00 | 1 | 1008.0 |
| 20260507101346 | 47 | 69 | 0.0 | 0.0 | 0.00 | 0.00 | 0.00 | 1 | 1007.9 |
| 20260507100845 | 47 | 69 | 0.0 | 0.0 | 0.00 | 0.00 | 0.00 | 1 | 1007.7 |
| 20260507100339 | 47 | 69 | 0.0 | 0.0 | 0.00 | 0.00 | 0.00 | 1 | 1007.6 |
| 20260507095832 | 47 | 69 | 0.0 | 0.0 | 0.00 | 0.00 | 0.00 | 1 | 1007.6 |
| 20260507095327 | 47 | 64 | 0.0 | 0.0 | 0.00 | 0.00 | 0.00 | 1 | 1007.4 |
| 20260507094821 | 47 | 64 | 0.0 | 0.0 | 0.00 | 0.00 | 0.00 | 1 | 1007.3 |
| 20260507094320 | 47 | 64 | 0.0 | 0.0 | 0.00 | 0.00 | 0.00 | 1 | 1007.3 |
| 20260507093820 | 47 | 64 | 0.0 | 0.0 | 0.00 | 0.00 | 0.00 | 1 | 1007.3 |
| 20260507093546 | 47 | 64 | 0.0 | 0.0 | 0.00 | 0.00 | 0.00 | 1 | 1007.4 |
| 20260507092815 | 47 | 64 | 0.0 | 0.0 | 0.00 | 0.00 | 0.00 | 1 | 1007.4 |
| 20260507092315 | 47 | 64 | 0.0 | 0.0 | 0.00 | 0.00 | 0.00 | 1 | 1007.3 |
| 20260507091815 | 47 | 64 | 0.0 | 0.0 | 0.00 | 0.00 | 0.00 | 1 | 1007.3 |
| 20260507091315 | 47 | 64 | 0.0 | 0.0 | 0.00 | 0.00 | 0.00 | 1 | 1007.3 |
| 20260507091036 | 47 | 65 | 0.0 | 0.0 | 0.00 | 0.00 | 0.00 | 1 | 1007.2 |
| 20260507090315 | 47 | 65 | 0.0 | 0.0 | 0.00 | 0.00 | 0.00 | 1 | 1007.2 |
| 20260507090039 | 48 | 65 | 0.0 | 0.0 | 0.00 | 0.00 | 0.00 | 1 | 1007.3 |
| 20260507085314 | 48 | 64 | 0.0 | 0.0 | 0.00 | 0.00 | 0.00 | 1 | 1007.4 |
| 20260507084812 | 48 | 64 | 0.0 | 0.0 | 0.00 | 0.00 | 0.00 | 1 | 1007.4 |
| 20260507084312 | 49 | 62 | 0.0 | 0.0 | 0.00 | 0.00 | 0.00 | 1 | 1007.4 |
| 20260507083811 | 49 | 62 | 0.0 | 0.0 | 0.00 | 0.00 | 0.00 | 1 | 1007.7 |
| 20260507083309 | 49 | 62 | 0.0 | 0.0 | 0.00 | 0.00 | 0.00 | 1 | 1007.3 |
| 20260507082807 | 49 | 62 | 0.0 | 0.0 | 0.00 | 0.00 | 0.00 | 1 | 1007.4 |
| 20260507082529 | 49 | 62 | 0.0 | 0.0 | 0.00 | 0.00 | 0.00 | 1 | 1007.7 |
| 20260507081807 | 49 | 62 | 0.0 | 0.0 | 0.00 | 0.00 | 0.00 | 1 | 1007.7 |
| 20260507081301 | 49 | 63 | 0.0 | 0.0 | 0.00 | 0.00 | 0.00 | 1 | 1008.0 |